Regional Weather Roundup
Issued by NWS

Home | Current Version | Previous Version | Text Only | Print | Product List | Glossary Off
Versions: 1 2 3 4 5 6 7 8 9 10 11 12 13 14 15 16 17 18 19 20 21 22 23 24 25 26 27 28 29 30 31 32 33 34 35 36 37 38 39 40 41 42 43 44 45 46 47 48 49 50

183
ASUS43 KIND 252009
RWRIN

WEATHER ROUNDUP FOR INDIANA
NATIONAL WEATHER SERVICE INDIANAPOLIS IN
400 PM EDT SUN JUN 25 2017

NOTE: "FAIR" INDICATES FEW OR NO CLOUDS BELOW 12,000 FEET WITH NO
SIGNIFICANT WEATHER AND/OR OBSTRUCTIONS TO VISIBILITY.

* - STATION DOES NOT REPORT WEATHER SUCH AS PRECIPITATION OR FOG.

+ - STATION NOT QUALITY CONTROLLED BY THE NATIONAL WEATHER SERVICE.
    USE DATA WITH CAUTION...ESPECIALLY DEWPOINT AND RELATIVE
    HUMIDITY OBSERVATIONS.

INZ001>003-010>013-019-020-252100-
NORTHWEST INDIANA

CITY           SKY/WX    TMP DP  RH WIND       PRES   REMARKS
GARY /AIRPORT/ PTSUNNY   73  39  29 W15G26    30.10F
KNOX *+        MOSUNNY   72  34  25 W13       30.10S
LA PORTE +     PTSUNNY   70  45  41 W8G21     30.11S
MICHIGAN CITY+ SUNNY     70  45  40 NW10G16   30.10F
MONTICELLO +   PTSUNNY   72  44  37 W13G20    30.12S
VALPARAISO     CLOUDY    74  44  34 W16       30.10F

$$

LMZ046-743>745-252100-
SOUTHERN LAKE MICHIGAN

STATION/POSITION TIME  TEMP    WIND        PRES    WAVE
                       AIR SEA DIR/SP/G            HT
                 (UTC) (F)     (DEG/KT/KT) (MB)    (FT)
BURNS HARBOR     1940   67     280/ 12/ 15 1019.6R
MICHIGAN CITY    1940   67     260/ 10/ 11   N/A
5NW MICH CITY    2000   67 67  270/  8/ 10   N/A     2

$$

INZ004-005-014>016-021>024-252100-
NORTH CENTRAL INDIANA

CITY           SKY/WX    TMP DP  RH WIND       PRES   REMARKS
GOSHEN         PTSUNNY   70  42  36 W16       30.09S
LOGANSPORT +   MOSUNNY   70  43  37 NW13G21   30.13S
PERU/GRISSOM   MOSUNNY   71  46  39 W16G22    30.11S
ROCHESTER +    SUNNY     73  41  31 W14G21    30.11S
SOUTH BEND     MOSUNNY   71  46  40 W16G25    30.10S
WARSAW +       CLOUDY    68  43  40 W15G21    30.09F

$$

INZ006>009-017-018-025>027-252100-
NORTHEAST INDIANA

CITY           SKY/WX    TMP DP  RH WIND       PRES   REMARKS
AUBURN +       MOSUNNY   72  41  33 W8G22     30.09S
FORT WAYNE     PTSUNNY   72  47  40 W16       30.10S
HUNTINGTON +   PTSUNNY   69  44  41 W12G17    30.11S
KENDALLVILLE + MOSUNNY   73  44  35 W8        30.09S

$$

INZ028-029-035-036-043>045-051>053-252100-
WEST CENTRAL INDIANA

CITY           SKY/WX    TMP DP  RH WIND       PRES   REMARKS
CRAWFORDSVL +  PTSUNNY   71  48  44 W10G17    30.14S
GREENCASTLE +  MOSUNNY   72  45  37 W5        30.14F
LAFAYETTE      MOSUNNY   72  49  44 W17       30.12F
TERRE HAUTE    MOSUNNY   76  45  33 W13G22    30.14F

$$

INZ030>032-037>040-046>048-054>057-064-065-252100-
CENTRAL INDIANA

CITY           SKY/WX    TMP DP  RH WIND       PRES   REMARKS
CP ATTERBURY + SUNNY     75  45  33 NW14G24   30.14S
COLUMBUS       SUNNY     75  39  27 NW12G21   30.13F
FRANKFORT +    PTSUNNY   73  49  43 NW14G21   30.15F
GREENWOOD *+   MOSUNNY   73  46  38 W14G22    30.15S
INDIANAPOLIS   MOSUNNY   74  48  39 W10G20    30.13F
-EAGLE CREEK   MOSUNNY   74  46  36 W12G20    30.13F
KOKOMO +       MOSUNNY   71  47  42 W21G28    30.12F
MARION +       MOSUNNY   70  45  40 W21G28    30.13F
MT COMFORT *+  MOSUNNY   72  46  40 W10G23    30.14S
SHELBYVILLE    MOSUNNY   76  46  34 W14       30.12F
ZIONSVILLE +   PTSUNNY   70  48  44 W10G17    30.14F

$$

INZ033-034-041-042-049-050-058-059-252100-
EAST CENTRAL INDIANA

CITY           SKY/WX    TMP DP  RH WIND       PRES   REMARKS
MUNCIE         PTSUNNY   70  47  43 W15G22    30.13S
RICHMOND +     MOSUNNY   72  46  40 W15G22    30.13F

$$

INZ060-061-067>069-081>083-085>088-252100-
SOUTHWEST INDIANA

CITY           SKY/WX    TMP DP  RH WIND       PRES   REMARKS
EVANSVILLE     MOSUNNY   82  46  28 W13G23    30.16F
HUNTINGBURG *+ MOSUNNY   80  48  32 W16G29    30.15F
WASHINGTON +   SUNNY     78  45  30 NW17G24   30.15F

$$

INZ062-063-066-070>080-084-089>092-252100-
SOUTH CENTRAL AND SOUTHEAST INDIANA

CITY           SKY/WX    TMP DP  RH WIND       PRES   REMARKS
BEDFORD +      SUNNY     77  39  25 W12G20    30.14S
BLOOMINGTON    MOSUNNY   75  46  35 W12G23    30.14F
MADISON *+     MOSUNNY   79  43  27 W12G20    30.15F
NORTH VERNON + MOSUNNY   75  50  41 W14       30.13F
SEYMOUR +      MOSUNNY   79  50  36 W20G28    30.12F

$$





USA.gov is the U.S. government's official web portal to all federal, state and local government web resources and services.